Year,Month,Day,Hour,Minute,Value (Times are PST for windgust in km/hr)
2010,11,17,00,00,8.10
2010,11,17,00,01,17.70
2010,11,17,00,02,6.40
2010,11,17,00,03,4.80
2010,11,17,00,04,6.40
2010,11,17,00,05,6.40
2010,11,17,00,06,4.80
2010,11,17,00,07,12.90
2010,11,17,00,08,6.40
2010,11,17,00,09,3.20
2010,11,17,00,10,4.80
2010,11,17,00,11,4.80
2010,11,17,00,12,8.10
2010,11,17,00,13,9.60
2010,11,17,00,14,6.40
2010,11,17,00,15,0.00
2010,11,17,00,16,1.60
2010,11,17,00,17,6.40
2010,11,17,00,18,6.40
2010,11,17,00,19,3.20
2010,11,17,00,20,3.20
2010,11,17,00,21,0.00
2010,11,17,00,22,4.80
2010,11,17,00,23,6.40
2010,11,17,00,24,8.10
2010,11,17,00,25,4.80
2010,11,17,00,26,4.80
2010,11,17,00,27,9.60
2010,11,17,00,28,4.80
2010,11,17,00,29,3.20
2010,11,17,00,30,3.20
2010,11,17,00,31,0.00
2010,11,17,00,32,3.20
2010,11,17,00,33,6.40
2010,11,17,00,34,8.10
2010,11,17,00,35,6.40
2010,11,17,00,36,6.40
2010,11,17,00,37,11.30
2010,11,17,00,38,6.40
2010,11,17,00,39,8.10
2010,11,17,00,40,8.10
2010,11,17,00,41,9.60
2010,11,17,00,42,8.10
2010,11,17,00,43,4.80
2010,11,17,00,44,4.80
2010,11,17,00,45,4.80
2010,11,17,00,46,4.80
2010,11,17,00,47,3.20
2010,11,17,00,48,8.10
2010,11,17,00,49,8.10
2010,11,17,00,50,3.20
2010,11,17,00,51,3.20
2010,11,17,00,52,4.80
2010,11,17,00,53,0.00
2010,11,17,00,54,1.60
2010,11,17,00,55,0.00
2010,11,17,00,56,1.60
2010,11,17,00,57,6.40
2010,11,17,00,58,3.20
2010,11,17,00,59,1.60
2010,11,17,01,00,4.80
2010,11,17,01,01,6.40
2010,11,17,01,02,8.10
2010,11,17,01,03,3.20
2010,11,17,01,04,4.80
2010,11,17,01,05,4.80
2010,11,17,01,06,0.00
2010,11,17,01,07,4.80
2010,11,17,01,08,8.10
2010,11,17,01,09,9.60
2010,11,17,01,10,4.80
2010,11,17,01,11,14.50
2010,11,17,01,12,11.30
2010,11,17,01,13,16.10
2010,11,17,01,14,17.70
2010,11,17,01,15,14.50
2010,11,17,01,16,9.60
2010,11,17,01,17,9.60
2010,11,17,01,18,8.10
2010,11,17,01,19,9.60
2010,11,17,01,20,17.70
2010,11,17,01,21,3.20
2010,11,17,01,22,6.40
2010,11,17,01,23,16.10
2010,11,17,01,24,16.10
2010,11,17,01,25,8.10
2010,11,17,01,26,6.40
2010,11,17,01,27,11.30
2010,11,17,01,28,14.50
2010,11,17,01,29,8.10
2010,11,17,01,30,1.60
2010,11,17,01,31,19.30
2010,11,17,01,32,6.40
2010,11,17,01,33,11.30
2010,11,17,01,34,8.10
2010,11,17,01,35,17.70
2010,11,17,01,36,9.60
2010,11,17,01,37,8.10
2010,11,17,01,38,1.60
2010,11,17,01,39,4.80
2010,11,17,01,40,9.60
2010,11,17,01,41,9.60
2010,11,17,01,42,6.40
2010,11,17,01,43,6.40
2010,11,17,01,44,3.20
2010,11,17,01,45,1.60
2010,11,17,01,46,9.60
2010,11,17,01,47,8.10
2010,11,17,01,48,9.60
2010,11,17,01,49,16.10
2010,11,17,01,50,11.30
2010,11,17,01,51,8.10
2010,11,17,01,52,9.60
2010,11,17,01,53,3.20
2010,11,17,01,54,6.40
2010,11,17,01,55,11.30
2010,11,17,01,56,8.10
2010,11,17,01,57,3.20
2010,11,17,01,58,11.30
2010,11,17,01,59,11.30
2010,11,17,02,00,9.60
2010,11,17,02,01,11.30
2010,11,17,02,02,11.30
2010,11,17,02,03,14.50
2010,11,17,02,04,8.10
2010,11,17,02,05,11.30
2010,11,17,02,06,3.20
2010,11,17,02,07,8.10
2010,11,17,02,08,4.80
2010,11,17,02,09,4.80
2010,11,17,02,10,6.40
2010,11,17,02,11,9.60
2010,11,17,02,12,6.40
2010,11,17,02,13,8.10
2010,11,17,02,14,11.30
2010,11,17,02,15,9.60
2010,11,17,02,16,9.60
2010,11,17,02,17,14.50
2010,11,17,02,18,11.30
2010,11,17,02,19,8.10
2010,11,17,02,20,11.30
2010,11,17,02,21,11.30
2010,11,17,02,22,14.50
2010,11,17,02,23,16.10
2010,11,17,02,24,14.50
2010,11,17,02,25,11.30
2010,11,17,02,26,14.50
2010,11,17,02,27,16.10
2010,11,17,02,28,17.70
2010,11,17,02,29,9.60
2010,11,17,02,30,11.30
2010,11,17,02,31,8.10
2010,11,17,02,32,8.10
2010,11,17,02,33,11.30
2010,11,17,02,34,6.40
2010,11,17,02,35,11.30
2010,11,17,02,36,6.40
2010,11,17,02,37,17.70
2010,11,17,02,38,14.50
2010,11,17,02,39,14.50
2010,11,17,02,40,11.30
2010,11,17,02,41,11.30
2010,11,17,02,42,14.50
2010,11,17,02,43,17.70
2010,11,17,02,44,16.10
2010,11,17,02,45,19.30
2010,11,17,02,46,16.10
2010,11,17,02,47,16.10
2010,11,17,02,48,24.20
2010,11,17,02,49,22.50
2010,11,17,02,50,17.70
2010,11,17,02,51,11.30
2010,11,17,02,52,17.70
2010,11,17,02,53,14.50
2010,11,17,02,54,11.30
2010,11,17,02,55,6.40
2010,11,17,02,56,17.70
2010,11,17,02,57,20.90
2010,11,17,02,58,16.10
2010,11,17,02,59,20.90
2010,11,17,03,00,16.10
2010,11,17,03,01,16.10
2010,11,17,03,02,11.30
2010,11,17,03,03,11.30
2010,11,17,03,04,17.70
2010,11,17,03,05,14.50
2010,11,17,03,06,17.70
2010,11,17,03,07,17.70
2010,11,17,03,08,17.70
2010,11,17,03,09,17.70
2010,11,17,03,10,17.70
2010,11,17,03,11,20.90
2010,11,17,03,12,11.30
2010,11,17,03,13,22.50
2010,11,17,03,14,14.50
2010,11,17,03,15,17.70
2010,11,17,03,16,11.30
2010,11,17,03,17,14.50
2010,11,17,03,18,19.30
2010,11,17,03,19,20.90
2010,11,17,03,20,19.30
2010,11,17,03,21,16.10
2010,11,17,03,22,17.70
2010,11,17,03,23,14.50
2010,11,17,03,24,22.50
2010,11,17,03,25,20.90
2010,11,17,03,26,17.70
2010,11,17,03,27,16.10
2010,11,17,03,28,9.60
2010,11,17,03,29,20.90
2010,11,17,03,30,16.10
2010,11,17,03,31,16.10
2010,11,17,03,32,11.30
2010,11,17,03,33,9.60
2010,11,17,03,34,11.30
2010,11,17,03,35,14.50
2010,11,17,03,36,16.10
2010,11,17,03,37,14.50
2010,11,17,03,38,14.50
2010,11,17,03,39,8.10
2010,11,17,03,40,12.90
2010,11,17,03,41,6.40
2010,11,17,03,42,14.50
2010,11,17,03,43,20.90
2010,11,17,03,44,20.90
2010,11,17,03,45,20.90
2010,11,17,03,46,11.30
2010,11,17,03,47,16.10
2010,11,17,03,48,11.30
2010,11,17,03,49,14.50
2010,11,17,03,50,17.70
2010,11,17,03,51,8.10
2010,11,17,03,52,14.50
2010,11,17,03,53,20.90
2010,11,17,03,54,20.90
2010,11,17,03,55,17.70
2010,11,17,03,56,27.40
2010,11,17,03,57,20.90
2010,11,17,03,58,14.50
2010,11,17,03,59,19.30
2010,11,17,04,00,19.30
2010,11,17,04,01,19.30
2010,11,17,04,02,20.90
2010,11,17,04,03,16.10
2010,11,17,04,04,19.30
2010,11,17,04,05,22.50
2010,11,17,04,06,11.30
2010,11,17,04,07,16.10
2010,11,17,04,08,16.10
2010,11,17,04,09,17.70
2010,11,17,04,10,19.30
2010,11,17,04,11,20.90
2010,11,17,04,12,19.30
2010,11,17,04,13,25.70
2010,11,17,04,14,25.70
2010,11,17,04,15,16.10
2010,11,17,04,16,16.10
2010,11,17,04,17,30.60
2010,11,17,04,18,20.90
2010,11,17,04,19,19.30
2010,11,17,04,20,25.70
2010,11,17,04,21,17.70
2010,11,17,04,22,19.30
2010,11,17,04,23,25.70
2010,11,17,04,24,20.90
2010,11,17,04,25,11.30
2010,11,17,04,26,19.30
2010,11,17,04,27,14.50
2010,11,17,04,28,17.70
2010,11,17,04,29,24.20
2010,11,17,04,30,22.50
2010,11,17,04,31,20.90
2010,11,17,04,32,16.10
2010,11,17,04,33,17.70
2010,11,17,04,34,20.90
2010,11,17,04,35,22.50
2010,11,17,04,36,24.20
2010,11,17,04,37,11.30
2010,11,17,04,38,22.50
2010,11,17,04,39,22.50
2010,11,17,04,40,24.20
2010,11,17,04,41,20.90
2010,11,17,04,42,17.70
2010,11,17,04,43,20.90
2010,11,17,04,44,19.30
2010,11,17,04,45,25.70
2010,11,17,04,46,17.70
2010,11,17,04,47,19.30
2010,11,17,04,48,20.90
2010,11,17,04,49,20.90
2010,11,17,04,50,24.20
2010,11,17,04,51,19.30
2010,11,17,04,52,22.50
2010,11,17,04,53,27.40
2010,11,17,04,54,24.20
2010,11,17,04,55,25.70
2010,11,17,04,56,25.70
2010,11,17,04,57,25.70
2010,11,17,04,58,25.70
2010,11,17,04,59,20.90
2010,11,17,05,00,19.30
2010,11,17,05,01,22.50
2010,11,17,05,02,32.20
2010,11,17,05,03,19.30
2010,11,17,05,04,25.70
2010,11,17,05,05,24.20
2010,11,17,05,06,32.20
2010,11,17,05,07,24.20
2010,11,17,05,08,19.30
2010,11,17,05,09,17.70
2010,11,17,05,10,17.70
2010,11,17,05,11,29.00
2010,11,17,05,12,24.20
2010,11,17,05,13,29.00
2010,11,17,05,14,33.80
2010,11,17,05,15,35.40
2010,11,17,05,16,27.40
2010,11,17,05,17,22.50
2010,11,17,05,18,25.70
2010,11,17,05,19,25.70
2010,11,17,05,20,20.90
2010,11,17,05,21,24.20
2010,11,17,05,22,16.10
2010,11,17,05,23,24.20
2010,11,17,05,24,24.20
2010,11,17,05,25,22.50
2010,11,17,05,26,27.40
2010,11,17,05,27,32.20
2010,11,17,05,28,27.40
2010,11,17,05,29,30.60
2010,11,17,05,30,32.20
2010,11,17,05,31,20.90
2010,11,17,05,32,32.20
2010,11,17,05,33,27.40
2010,11,17,05,34,29.00
2010,11,17,05,35,30.60
2010,11,17,05,36,38.60
2010,11,17,05,37,37.00
2010,11,17,05,38,35.40
2010,11,17,05,39,32.20
2010,11,17,05,40,27.40
2010,11,17,05,41,16.10
2010,11,17,05,42,25.70
2010,11,17,05,43,37.00
2010,11,17,05,44,33.80
2010,11,17,05,45,30.60
2010,11,17,05,46,48.30
2010,11,17,05,47,27.40
2010,11,17,05,48,38.60
2010,11,17,05,49,25.70
2010,11,17,05,50,35.40
2010,11,17,05,51,29.00
2010,11,17,05,52,30.60
2010,11,17,05,53,33.80
2010,11,17,05,54,33.80
2010,11,17,05,55,29.00
2010,11,17,05,56,32.20
2010,11,17,05,57,33.80
2010,11,17,05,58,32.20
2010,11,17,05,59,22.50
2010,11,17,06,00,20.90
2010,11,17,06,01,25.70
2010,11,17,06,02,33.80
2010,11,17,06,03,29.00
2010,11,17,06,04,32.20
2010,11,17,06,05,43.50
2010,11,17,06,06,32.20
2010,11,17,06,07,40.20
2010,11,17,06,08,25.70
2010,11,17,06,09,29.00
2010,11,17,06,10,29.00
2010,11,17,06,11,30.60
2010,11,17,06,12,37.00
2010,11,17,06,13,32.20
2010,11,17,06,14,32.20
2010,11,17,06,15,35.40
2010,11,17,06,16,33.80
2010,11,17,06,17,33.80
2010,11,17,06,18,32.20
2010,11,17,06,19,37.00
2010,11,17,06,20,32.20
2010,11,17,06,21,45.10
2010,11,17,06,22,33.80
2010,11,17,06,23,43.50
2010,11,17,06,24,41.80
2010,11,17,06,25,29.00
2010,11,17,06,26,32.20
2010,11,17,06,27,33.80
2010,11,17,06,28,38.60
2010,11,17,06,29,30.60
2010,11,17,06,30,25.70
2010,11,17,06,31,45.10
2010,11,17,06,32,22.50
2010,11,17,06,33,37.00
2010,11,17,06,34,27.40
2010,11,17,06,35,20.90
2010,11,17,06,36,20.90
2010,11,17,06,37,20.90
2010,11,17,06,38,20.90
2010,11,17,06,39,20.90
2010,11,17,06,40,20.90
2010,11,17,06,41,20.90
2010,11,17,06,42,20.90
2010,11,17,06,43,19.30
2010,11,17,06,44,30.60
2010,11,17,06,45,25.70
2010,11,17,06,46,24.20
2010,11,17,06,47,17.70
2010,11,17,06,48,19.30
2010,11,17,06,49,16.10
2010,11,17,06,50,11.30
2010,11,17,06,51,14.50
2010,11,17,06,52,11.30
2010,11,17,06,53,9.60
2010,11,17,06,54,11.30
2010,11,17,06,55,4.80
2010,11,17,06,56,8.10
2010,11,17,06,57,14.50
2010,11,17,06,58,17.70
2010,11,17,06,59,17.70
2010,11,17,07,00,11.30
2010,11,17,07,01,14.50
2010,11,17,07,02,20.90
2010,11,17,07,03,4.80
2010,11,17,07,04,8.10
2010,11,17,07,05,11.30
2010,11,17,07,06,16.10
2010,11,17,07,07,9.60
2010,11,17,07,08,8.10
2010,11,17,07,09,8.10
2010,11,17,07,10,6.40
2010,11,17,07,11,6.40
2010,11,17,07,12,8.10
2010,11,17,07,13,6.40
2010,11,17,07,14,6.40
2010,11,17,07,15,8.10
2010,11,17,07,16,8.10
2010,11,17,07,17,16.10
2010,11,17,07,18,8.10
2010,11,17,07,19,9.60
2010,11,17,07,20,6.40
2010,11,17,07,21,8.10
2010,11,17,07,22,3.20
2010,11,17,07,23,0.00
2010,11,17,07,24,0.00
2010,11,17,07,25,0.00
2010,11,17,07,26,6.40
2010,11,17,07,27,8.10
2010,11,17,07,28,8.10
2010,11,17,07,29,4.80
2010,11,17,07,30,3.20
2010,11,17,07,31,0.00
2010,11,17,07,32,0.00
2010,11,17,07,33,0.00
2010,11,17,07,34,3.20
2010,11,17,07,35,3.20
2010,11,17,07,36,3.20
2010,11,17,07,37,3.20
2010,11,17,07,38,1.60
2010,11,17,07,39,0.00
2010,11,17,07,40,0.00
2010,11,17,07,41,3.20
2010,11,17,07,42,3.20
2010,11,17,07,43,3.20
2010,11,17,07,44,3.20
2010,11,17,07,45,1.60
2010,11,17,07,46,3.20
2010,11,17,07,47,3.20
2010,11,17,07,48,3.20
2010,11,17,07,49,0.00
2010,11,17,07,50,1.60
2010,11,17,07,51,1.60
2010,11,17,07,52,0.00
2010,11,17,07,53,0.00
2010,11,17,07,54,0.00
2010,11,17,07,55,0.00
2010,11,17,07,56,0.00
2010,11,17,07,57,0.00
2010,11,17,07,58,0.00
2010,11,17,07,59,0.00
2010,11,17,08,00,0.00
2010,11,17,08,01,0.00
2010,11,17,08,02,0.00
2010,11,17,08,03,0.00
2010,11,17,08,04,0.00
2010,11,17,08,05,0.00
2010,11,17,08,06,1.60
2010,11,17,08,07,3.20
2010,11,17,08,08,4.80
2010,11,17,08,09,3.20
2010,11,17,08,10,4.80
2010,11,17,08,11,3.20
2010,11,17,08,12,4.80
2010,11,17,08,13,4.80
2010,11,17,08,14,6.40
2010,11,17,08,15,4.80
2010,11,17,08,16,3.20
2010,11,17,08,17,3.20
2010,11,17,08,18,4.80
2010,11,17,08,19,3.20
2010,11,17,08,20,0.00
2010,11,17,08,21,0.00
2010,11,17,08,22,6.40
2010,11,17,08,23,4.80
2010,11,17,08,24,6.40
2010,11,17,08,25,8.10
2010,11,17,08,26,9.60
2010,11,17,08,27,12.90
2010,11,17,08,28,4.80
2010,11,17,08,29,3.20
2010,11,17,08,30,3.20
2010,11,17,08,31,3.20
2010,11,17,08,32,3.20
2010,11,17,08,33,0.00
2010,11,17,08,34,0.00
2010,11,17,08,35,0.00
2010,11,17,08,36,0.00
2010,11,17,08,37,0.00
2010,11,17,08,38,4.80
2010,11,17,08,39,6.40
2010,11,17,08,40,4.80
2010,11,17,08,41,4.80
2010,11,17,08,42,11.30
2010,11,17,08,43,11.30
2010,11,17,08,44,11.30
2010,11,17,08,45,9.60
2010,11,17,08,46,8.10
2010,11,17,08,47,14.50
2010,11,17,08,48,17.70
2010,11,17,08,49,8.10
2010,11,17,08,50,11.30
2010,11,17,08,51,8.10
2010,11,17,08,52,6.40
2010,11,17,08,53,8.10
2010,11,17,08,54,8.10
2010,11,17,08,55,8.10
2010,11,17,08,56,8.10
2010,11,17,08,57,11.30
2010,11,17,08,58,11.30
2010,11,17,08,59,8.10
2010,11,17,09,00,8.10
2010,11,17,09,01,9.60
2010,11,17,09,02,6.40
2010,11,17,09,03,6.40
2010,11,17,09,04,8.10
2010,11,17,09,05,6.40
2010,11,17,09,06,3.20
2010,11,17,09,07,4.80
2010,11,17,09,08,4.80
2010,11,17,09,09,3.20
2010,11,17,09,10,6.40
2010,11,17,09,11,6.40
2010,11,17,09,12,6.40
2010,11,17,09,13,3.20
2010,11,17,09,14,8.10
2010,11,17,09,15,8.10
2010,11,17,09,16,4.80
2010,11,17,09,17,4.80
2010,11,17,09,18,6.40
2010,11,17,09,19,6.40
2010,11,17,09,20,3.20
2010,11,17,09,21,3.20
2010,11,17,09,22,6.40
2010,11,17,09,23,8.10
2010,11,17,09,24,6.40
2010,11,17,09,25,3.20
2010,11,17,09,26,6.40
2010,11,17,09,27,8.10
2010,11,17,09,28,8.10
2010,11,17,09,29,9.60
2010,11,17,09,30,8.10
2010,11,17,09,31,6.40
2010,11,17,09,32,4.80
2010,11,17,09,33,4.80
2010,11,17,09,34,0.00
2010,11,17,09,35,4.80
2010,11,17,09,36,6.40
2010,11,17,09,37,9.60
2010,11,17,09,38,6.40
2010,11,17,09,39,1.60
2010,11,17,09,40,4.80
2010,11,17,09,41,4.80
2010,11,17,09,42,6.40
2010,11,17,09,43,4.80
2010,11,17,09,44,4.80
2010,11,17,09,45,6.40
2010,11,17,09,46,8.10
2010,11,17,09,47,8.10
2010,11,17,09,48,3.20
2010,11,17,09,49,4.80
2010,11,17,09,50,8.10
2010,11,17,09,51,8.10
2010,11,17,09,52,8.10
2010,11,17,09,53,9.60
2010,11,17,09,54,6.40
2010,11,17,09,55,4.80
2010,11,17,09,56,6.40
2010,11,17,09,57,8.10
2010,11,17,09,58,6.40
2010,11,17,09,59,6.40
2010,11,17,10,00,9.60
2010,11,17,10,01,4.80
2010,11,17,10,02,3.20
2010,11,17,10,03,6.40
2010,11,17,10,04,6.40
2010,11,17,10,05,3.20
2010,11,17,10,06,1.60
2010,11,17,10,07,4.80
2010,11,17,10,08,8.10
2010,11,17,10,09,4.80
2010,11,17,10,10,3.20
2010,11,17,10,11,6.40
2010,11,17,10,12,6.40
2010,11,17,10,13,4.80
2010,11,17,10,14,3.20
2010,11,17,10,15,4.80
2010,11,17,10,16,8.10
2010,11,17,10,17,1.60
2010,11,17,10,18,0.00
2010,11,17,10,19,4.80
2010,11,17,10,20,9.60
2010,11,17,10,21,6.40
2010,11,17,10,22,6.40
2010,11,17,10,23,8.10
2010,11,17,10,24,9.60
2010,11,17,10,25,8.10
2010,11,17,10,26,8.10
2010,11,17,10,27,4.80
2010,11,17,10,28,3.20
2010,11,17,10,29,0.00
2010,11,17,10,30,0.00
2010,11,17,10,31,0.00
2010,11,17,10,32,0.00
2010,11,17,10,33,0.00
2010,11,17,10,34,4.80
2010,11,17,10,35,6.40
2010,11,17,10,36,9.60
2010,11,17,10,37,11.30
2010,11,17,10,38,4.80
2010,11,17,10,39,4.80
2010,11,17,10,40,4.80
2010,11,17,10,41,0.00
2010,11,17,10,42,3.20
2010,11,17,10,43,3.20
2010,11,17,10,44,3.20
2010,11,17,10,45,3.20
2010,11,17,10,46,3.20
2010,11,17,10,47,6.40
2010,11,17,10,48,11.30
2010,11,17,10,49,8.10
2010,11,17,10,50,6.40
2010,11,17,10,51,6.40
2010,11,17,10,52,3.20
2010,11,17,10,53,6.40
2010,11,17,10,54,9.60
2010,11,17,10,55,8.10
2010,11,17,10,56,8.10
2010,11,17,10,57,16.10
2010,11,17,10,58,19.30
2010,11,17,10,59,19.30
2010,11,17,11,00,14.50
2010,11,17,11,01,14.50
2010,11,17,11,02,8.10
2010,11,17,11,03,8.10
2010,11,17,11,04,20.90
2010,11,17,11,05,9.60
2010,11,17,11,06,12.90
2010,11,17,11,07,16.10
2010,11,17,11,08,8.10
2010,11,17,11,09,11.30
2010,11,17,11,10,9.60
2010,11,17,11,11,6.40
2010,11,17,11,12,9.60
2010,11,17,11,13,8.10
2010,11,17,11,14,9.60
2010,11,17,11,15,8.10
2010,11,17,11,16,6.40
2010,11,17,11,17,0.00
2010,11,17,11,18,4.80
2010,11,17,11,19,4.80
2010,11,17,11,20,1.60
2010,11,17,11,21,3.20
2010,11,17,11,22,4.80
2010,11,17,11,23,0.00
2010,11,17,11,24,0.00
2010,11,17,11,25,14.50
2010,11,17,11,26,11.30
2010,11,17,11,27,9.60
2010,11,17,11,28,8.10
2010,11,17,11,29,9.60
2010,11,17,11,30,8.10
2010,11,17,11,31,3.20
2010,11,17,11,32,4.80
2010,11,17,11,33,6.40
2010,11,17,11,34,11.30
2010,11,17,11,35,8.10
2010,11,17,11,36,8.10
2010,11,17,11,37,11.30
2010,11,17,11,38,17.70
2010,11,17,11,39,16.10
2010,11,17,11,40,6.40
2010,11,17,11,41,4.80
2010,11,17,11,42,8.10
2010,11,17,11,43,6.40
2010,11,17,11,44,8.10
2010,11,17,11,45,11.30
2010,11,17,11,46,4.80
2010,11,17,11,47,6.40
2010,11,17,11,48,6.40
2010,11,17,11,49,9.60
2010,11,17,11,50,11.30
2010,11,17,11,51,8.10
2010,11,17,11,52,8.10
2010,11,17,11,53,9.60
2010,11,17,11,54,8.10
2010,11,17,11,55,17.70
2010,11,17,11,56,17.70
2010,11,17,11,57,9.60
2010,11,17,11,58,4.80
2010,11,17,11,59,4.80
2010,11,17,12,00,4.80
2010,11,17,12,01,9.60
2010,11,17,12,02,14.50
2010,11,17,12,03,12.90
2010,11,17,12,04,12.90
2010,11,17,12,05,9.60
2010,11,17,12,06,11.30
2010,11,17,12,07,8.10
2010,11,17,12,08,9.60
2010,11,17,12,09,16.10
2010,11,17,12,10,8.10
2010,11,17,12,11,8.10
2010,11,17,12,12,17.70
2010,11,17,12,13,9.60
2010,11,17,12,14,12.90
2010,11,17,12,15,19.30
2010,11,17,12,16,24.20
2010,11,17,12,17,20.90
2010,11,17,12,18,20.90
2010,11,17,12,19,11.30
2010,11,17,12,20,4.80
2010,11,17,12,21,17.70
2010,11,17,12,22,14.50
2010,11,17,12,23,14.50
2010,11,17,12,24,19.30
2010,11,17,12,25,9.60
2010,11,17,12,26,9.60
2010,11,17,12,27,9.60
2010,11,17,12,28,17.70
2010,11,17,12,29,11.30
2010,11,17,12,30,16.10
2010,11,17,12,31,14.50
2010,11,17,12,32,19.30
2010,11,17,12,33,25.70
2010,11,17,12,34,19.30
2010,11,17,12,35,22.50
2010,11,17,12,36,24.20
2010,11,17,12,37,25.70
2010,11,17,12,38,22.50
2010,11,17,12,39,25.70
2010,11,17,12,40,29.00
2010,11,17,12,41,22.50
2010,11,17,12,42,25.70
2010,11,17,12,43,27.40
2010,11,17,12,44,35.40
2010,11,17,12,45,40.20
2010,11,17,12,46,41.80
2010,11,17,12,47,49.90
2010,11,17,12,48,41.80
2010,11,17,12,49,37.00
2010,11,17,12,50,33.80
2010,11,17,12,51,40.20
2010,11,17,12,52,64.40
2010,11,17,12,53,43.50
2010,11,17,12,54,43.50
2010,11,17,12,55,35.40
2010,11,17,12,56,35.40
2010,11,17,12,57,45.10
2010,11,17,12,58,32.20
2010,11,17,12,59,29.00
2010,11,17,13,00,24.20
2010,11,17,13,01,20.90
2010,11,17,13,02,22.50
2010,11,17,13,03,24.20
2010,11,17,13,04,20.90
2010,11,17,13,05,17.70
2010,11,17,13,06,17.70
2010,11,17,13,07,22.50
2010,11,17,13,08,19.30
2010,11,17,13,09,20.90
2010,11,17,13,10,20.90
2010,11,17,13,11,17.70
2010,11,17,13,12,11.30
2010,11,17,13,13,16.10
2010,11,17,13,14,8.10
2010,11,17,13,15,17.70
2010,11,17,13,16,11.30
2010,11,17,13,17,25.70
2010,11,17,13,18,20.90
2010,11,17,13,19,17.70
2010,11,17,13,20,20.90
2010,11,17,13,21,22.50
2010,11,17,13,22,24.20
2010,11,17,13,23,20.90
2010,11,17,13,24,17.70
2010,11,17,13,25,11.30
2010,11,17,13,26,24.20
2010,11,17,13,27,19.30
2010,11,17,13,28,19.30
2010,11,17,13,29,19.30
2010,11,17,13,30,38.60
2010,11,17,13,31,27.40
2010,11,17,13,32,14.50
2010,11,17,13,33,9.60
2010,11,17,13,34,17.70
2010,11,17,13,35,22.50
2010,11,17,13,36,17.70
2010,11,17,13,37,16.10
2010,11,17,13,38,17.70
2010,11,17,13,39,19.30
2010,11,17,13,40,16.10
2010,11,17,13,41,19.30
2010,11,17,13,42,8.10
2010,11,17,13,43,19.30
2010,11,17,13,44,11.30
2010,11,17,13,45,6.40
2010,11,17,13,46,19.30
2010,11,17,13,47,14.50
2010,11,17,13,48,35.40
2010,11,17,13,49,38.60
2010,11,17,13,50,24.20
2010,11,17,13,51,19.30
2010,11,17,13,52,19.30
2010,11,17,13,53,16.10
2010,11,17,13,54,12.90
2010,11,17,13,55,16.10
2010,11,17,13,56,8.10
2010,11,17,13,57,11.30
2010,11,17,13,58,16.10
2010,11,17,13,59,17.70
2010,11,17,14,00,12.90
2010,11,17,14,01,11.30
2010,11,17,14,02,14.50
2010,11,17,14,03,17.70
2010,11,17,14,04,17.70
2010,11,17,14,05,9.60
2010,11,17,14,06,9.60
2010,11,17,14,07,11.30
2010,11,17,14,08,14.50
2010,11,17,14,09,11.30
2010,11,17,14,10,11.30
2010,11,17,14,11,14.50
2010,11,17,14,12,11.30
2010,11,17,14,13,11.30
2010,11,17,14,14,9.60
2010,11,17,14,15,4.80
2010,11,17,14,16,9.60
2010,11,17,14,17,9.60
2010,11,17,14,18,9.60
2010,11,17,14,19,11.30
2010,11,17,14,20,6.40
2010,11,17,14,21,8.10
2010,11,17,14,22,6.40
2010,11,17,14,23,4.80
2010,11,17,14,24,6.40
2010,11,17,14,25,3.20
2010,11,17,14,26,0.00
2010,11,17,14,27,0.00
2010,11,17,14,28,4.80
2010,11,17,14,29,4.80
2010,11,17,14,30,8.10
2010,11,17,14,31,8.10
2010,11,17,14,32,8.10
2010,11,17,14,33,4.80
2010,11,17,14,34,4.80
2010,11,17,14,35,4.80
2010,11,17,14,36,8.10
2010,11,17,14,37,8.10
2010,11,17,14,38,8.10
2010,11,17,14,39,9.60
2010,11,17,14,40,8.10
2010,11,17,14,41,9.60
2010,11,17,14,42,11.30
2010,11,17,14,43,9.60
2010,11,17,14,44,6.40
2010,11,17,14,45,11.30
2010,11,17,14,46,12.90
2010,11,17,14,47,11.30
2010,11,17,14,48,11.30
2010,11,17,14,49,12.90
2010,11,17,14,50,16.10
2010,11,17,14,51,16.10
2010,11,17,14,52,14.50
2010,11,17,14,53,12.90
2010,11,17,14,54,11.30
2010,11,17,14,55,11.30
2010,11,17,14,56,8.10
2010,11,17,14,57,11.30
2010,11,17,14,58,9.60
2010,11,17,14,59,9.60
2010,11,17,15,00,17.70
2010,11,17,15,01,4.80
2010,11,17,15,02,11.30
2010,11,17,15,03,12.90
2010,11,17,15,04,16.10
2010,11,17,15,05,9.60
2010,11,17,15,06,6.40
2010,11,17,15,07,8.10
2010,11,17,15,08,9.60
2010,11,17,15,09,8.10
2010,11,17,15,10,9.60
2010,11,17,15,11,9.60
2010,11,17,15,12,8.10
2010,11,17,15,13,6.40
2010,11,17,15,14,8.10
2010,11,17,15,15,9.60
2010,11,17,15,16,8.10
2010,11,17,15,17,4.80
2010,11,17,15,18,14.50
2010,11,17,15,19,14.50
2010,11,17,15,20,9.60
2010,11,17,15,21,9.60
2010,11,17,15,22,16.10
2010,11,17,15,23,20.90
2010,11,17,15,24,14.50
2010,11,17,15,25,11.30
2010,11,17,15,26,12.90
2010,11,17,15,27,11.30
2010,11,17,15,28,11.30
2010,11,17,15,29,8.10
2010,11,17,15,30,6.40
2010,11,17,15,31,4.80
2010,11,17,15,32,4.80
2010,11,17,15,33,4.80
2010,11,17,15,34,8.10
2010,11,17,15,35,4.80
2010,11,17,15,36,11.30
2010,11,17,15,37,14.50
2010,11,17,15,38,6.40
2010,11,17,15,39,6.40
2010,11,17,15,40,1.60
2010,11,17,15,41,8.10
2010,11,17,15,42,8.10
2010,11,17,15,43,9.60
2010,11,17,15,44,14.50
2010,11,17,15,45,14.50
2010,11,17,15,46,16.10
2010,11,17,15,47,11.30
2010,11,17,15,48,14.50
2010,11,17,15,49,14.50
2010,11,17,15,50,17.70
2010,11,17,15,51,11.30
2010,11,17,15,52,8.10
2010,11,17,15,53,4.80
2010,11,17,15,54,11.30
2010,11,17,15,55,8.10
2010,11,17,15,56,8.10
2010,11,17,15,57,14.50
2010,11,17,15,58,9.60
2010,11,17,15,59,16.10
2010,11,17,16,00,16.10
2010,11,17,16,01,25.70
2010,11,17,16,02,17.70
2010,11,17,16,03,19.30
2010,11,17,16,04,14.50
2010,11,17,16,05,16.10
2010,11,17,16,06,16.10
2010,11,17,16,07,11.30
2010,11,17,16,08,8.10
2010,11,17,16,09,6.40
2010,11,17,16,10,8.10
2010,11,17,16,11,4.80
2010,11,17,16,12,3.20
2010,11,17,16,13,4.80
2010,11,17,16,14,6.40
2010,11,17,16,15,4.80
2010,11,17,16,16,4.80
2010,11,17,16,17,1.60
2010,11,17,16,18,14.50
2010,11,17,16,19,11.30
2010,11,17,16,20,8.10
2010,11,17,16,21,6.40
2010,11,17,16,22,1.60
2010,11,17,16,23,14.50
2010,11,17,16,24,11.30
2010,11,17,16,25,9.60
2010,11,17,16,26,4.80
2010,11,17,16,27,3.20
2010,11,17,16,28,4.80
2010,11,17,16,29,3.20
2010,11,17,16,30,4.80
2010,11,17,16,31,3.20
2010,11,17,16,32,8.10
2010,11,17,16,33,4.80
2010,11,17,16,34,3.20
2010,11,17,16,35,0.00
2010,11,17,16,36,0.00
2010,11,17,16,37,0.00
2010,11,17,16,38,3.20
2010,11,17,16,39,4.80
2010,11,17,16,40,4.80
2010,11,17,16,41,4.80
2010,11,17,16,42,4.80
2010,11,17,16,43,6.40
2010,11,17,16,44,4.80
2010,11,17,16,45,3.20
2010,11,17,16,46,4.80
2010,11,17,16,47,8.10
2010,11,17,16,48,6.40
2010,11,17,16,49,6.40
2010,11,17,16,50,8.10
2010,11,17,16,51,11.30
2010,11,17,16,52,6.40
2010,11,17,16,53,4.80
2010,11,17,16,54,4.80
2010,11,17,16,55,4.80
2010,11,17,16,56,6.40
2010,11,17,16,57,6.40
2010,11,17,16,58,4.80
2010,11,17,16,59,3.20
2010,11,17,17,00,1.60
2010,11,17,17,01,6.40
2010,11,17,17,02,6.40
2010,11,17,17,03,6.40
2010,11,17,17,04,4.80
2010,11,17,17,05,3.20
2010,11,17,17,06,6.40
2010,11,17,17,07,4.80
2010,11,17,17,08,0.00
2010,11,17,17,09,0.00
2010,11,17,17,10,0.00
2010,11,17,17,11,0.00
2010,11,17,17,12,0.00
2010,11,17,17,13,6.40
2010,11,17,17,14,3.20
2010,11,17,17,15,6.40
2010,11,17,17,16,0.00
2010,11,17,17,17,0.00
2010,11,17,17,18,0.00
2010,11,17,17,19,3.20
2010,11,17,17,20,3.20
2010,11,17,17,21,3.20
2010,11,17,17,22,0.00
2010,11,17,17,23,4.80
2010,11,17,17,24,1.60
2010,11,17,17,25,4.80
2010,11,17,17,26,6.40
2010,11,17,17,27,6.40
2010,11,17,17,28,6.40
2010,11,17,17,29,6.40
2010,11,17,17,30,9.60
2010,11,17,17,31,6.40
2010,11,17,17,32,8.10
2010,11,17,17,33,4.80
2010,11,17,17,34,3.20
2010,11,17,17,35,4.80
2010,11,17,17,36,3.20
2010,11,17,17,37,1.60
2010,11,17,17,38,3.20
2010,11,17,17,39,0.00
2010,11,17,17,40,0.00
2010,11,17,17,41,0.00
2010,11,17,17,42,0.00
2010,11,17,17,43,0.00
2010,11,17,17,44,0.00